Baltimore International Airport Airport (BWI)

 

Airport Diagram
Current Weather/Forecast (VFR Conditions)
METAR KBWI 090054Z 00000KT 10SM FEW160 FEW250 28/21 A2994 RMK AO2 SLP138 T02830206
TAF KBWI 082329Z 0900/1006 17005KT P6SM FEW150 FM091000 00000KT P6SM BKN200 FM091200 VRB03KT P6SM BKN025 FM091400 09005KT P6SM SCT140 FM092000 10007KT P6SM BKN250

All Charts
General
Chart Name Download
AIRPORT DIAGRAM
TAKEOFF MINIMUMS
ALTERNATE MINIMUMS

Departures
Chart Name Download
CONLE THREE (RNAV)
CONLE THREE (RNAV), CONT.1
FIXET THREE (RNAV)
FIXET THREE (RNAV), CONT.1
PALEO THREE
SWANN THREE
TERPZ SEVEN (RNAV)
TERPZ SEVEN (RNAV), CONT.1

Arrivals
Chart Name Download
ANTHM THREE (RNAV)
ANTHM THREE (RNAV), CONT.1
ANTHM THREE (RNAV), CONT.2
MIIDY TWO (RNAV)
RAVNN SIX (RNAV)
RAVNN SIX (RNAV), CONT.1
RIPKN TWO
RIPKN TWO, CONT.1
TRISH THREE (RNAV)
TRISH THREE (RNAV), CONT.1
WESTMINSTER SEVEN

Approaches
Chart Name Download
ILS OR LOC RWY 10
ILS OR LOC RWY 15L
ILS OR LOC RWY 28
ILS OR LOC RWY 33L
ILS OR LOC RWY 33R
ILS OR LOC RWY 15R
ILS RWY 10 (SA CAT I)
ILS RWY 33L (SA CAT I - II)
ILS RWY 10 (CAT II - III)
RNAV (RNP) Z RWY 10
RNAV (RNP) Z RWY 15R
RNAV (RNP) Z RWY 28
RNAV (RNP) Z RWY 33L
RNAV (GPS) RWY 15L
RNAV (GPS) RWY 33R
RNAV (GPS) Y RWY 10
RNAV (GPS) Y RWY 15R
RNAV (GPS) Y RWY 28
RNAV (GPS) Y RWY 33L
INTERSTATE VISUAL RWY 33L


Inbound Traffic (Arrivals)

No inbound traffic.


Outbound Traffic (Departures)

No outbound traffic.